Location: Bieg
(49.3499°N, 10.3835°E)
Time: 00:11:26
(UTC+00:00)

Nadezhda 1 Rocket - Pass Details

Date: 23 May 2024
Orbit: 942 x 1004 km, 83.0° (Epoch: 12 June)

Event Time Altitude Azimuth Distance (km) Brightness Sun altitude
Rises 01:04:46 0° 348° (NNW) 3,743 7.9 -15.9°
Reaches altitude 10° 01:07:20 10° 346° (NNW) 2,790 7.1 -15.7°
Maximum altitude 01:13:39 64° 267° (W) 1,103 4.1 -15.2°
Enters shadow 01:18:18 19° 190° (S) 2,174 5.3 -14.9°
